Orbital elements:
2019 EF2                                                 Earth MOID = 0.0112 AU
Epoch 2019 Apr. 27.0 TT = JDT 2458600.5                 MPC
M  21.25429              (2000.0)            P               Q
n   0.73141445     Peri.  195.72553     -0.98773669     +0.15286985
a   1.2200015      Node   352.83864     -0.10105775     -0.78092062
e   0.1807581      Incl.   14.74719     -0.11901074     -0.60563504
P   1.35           H   25.8           G   0.15           U   6
Residuals in seconds of arc
190312 T08  0.2-  0.0     190312 Z80  0.4+  0.4-    190313 K41  0.4-  0.4-
190312 T08  0.1+  0.1+    190312 J69  0.2+  0.1+    190313 C77  0.3+  0.7-
190312 T08  0.4-  0.0     190312 Z80  0.5+  0.5+    190313 C77  0.3-  0.4-
190312 T08  0.4-  0.6-    190312 Z80  0.4+  0.2-    190313 C77  0.5+  0.4-
190312 L01  0.1-  0.2-    190312 Z80  0.1+  0.5+    190313 C77  0.4+  0.6+
190312 L01  0.1-  0.0     190313 J95  0.3+  0.2+    190313 K63  0.1+  0.6-
190312 L01  0.2-  0.1-    190313 J95  0.0   0.1+    190313 K38  0.6-  0.7-
190312 L01  0.0   0.1-    190313 J95  0.0   0.1+    190313 K63  0.4-  0.4-
190312 L01  0.1-  0.0     190313 W34  0.1+  0.5-    190313 K38  0.1+  0.2+
190312 L01  0.1+  0.0     190313 W34  0.3+  0.9-    190313 K63  0.8-  1.0-
190312 L01  0.1+  0.2+    190313 W34  0.2-  0.5-    190313 K63 (1.1-  1.5-)
190312 L01  0.2-  0.1+    190313 W34  0.5-  0.9-    190313 K63 (1.1-  1.5-)
190312 J95  0.2+  0.1+    190313 658 (1.8-  0.5-)   190313 K38  0.0   0.1+
190312 J95  0.0   0.0     190313 658  1.4-  0.7-    190313 K38  0.1-  0.3-
190312 J95  0.1-  0.0     190313 658  1.0-  0.8-    190313 K38  0.0   0.2-
190312 L04  0.0   0.4+    190313 658  0.7-  0.6-    190313 K38  0.5-  0.2-
190312 L04  0.0   0.3+    190313 658  0.6-  0.4-    190313 K38  0.0   0.1-
190312 L18  0.3+  0.5+    190313 P93  0.6+  1.0+    190313 K38  0.3-  0.2-
190312 L18  0.6+  0.4+    190313 P93  0.6+  0.8+    190313 K38  0.1+  0.6+
190312 L18 (0.5-  2.8+)   190313 P93  0.6+  1.0+    190313 104  0.3+  0.7+
190312 L04  0.2+  0.3+    190313 P93  0.2-  0.6+    190313 104  0.2-  0.8+
190312 L18  0.2-  0.4+    190313 P93  0.4+  0.5+    190313 104  0.1+  0.1+
190312 L04  0.3-  0.2-    190313 P93  0.3+  0.2+    190314 L01  0.2-  0.1+
190312 J69  0.1-  0.5-    190313 K41 (4.1+  1.4-)   190314 L01  0.1-  0.2+
190312 J69  0.1+  0.1-    190313 K41 (4.6+  1.0-)   190314 L01  0.1+  0.2+
190312 J69  0.1-  0.0     190313 K41 (4.5+  0.6-)   190314 L01  0.2+  0.1+
190312 J69  0.2-  0.1-    190313 K41  0.8+  0.7-    190314 L01  0.3+  0.4+
190312 Z80  0.0   0.1-    190313 K41 (2.5+  0.4-)

Ephemeris:
2019 EF2                 a,e,i = 1.22, 0.18, 15                  q = 0.9995
Date    TT    R. A. (2000) Decl.     Delta      r     Elong.  Phase     V
2019 02 12    14 07 06.6 +69 53 03   0.1472  1.0488   111.0    61.5    23.9
...
2019 02 27    13 47 37.3 +68 57 29   0.07765 1.0222   112.4    63.6    22.6
...
2019 03 07    12 47 29.8 +64 08 52   0.03979 1.0119   118.8    59.3    21.0
...
2019 03 13    10 53 36.3 +33 06 29   0.01448 1.0062   148.9    30.6    17.9
2019 03 14    10 26 43.3 +15 27 46   0.01216 1.0054   159.2    20.5    17.3
2019 03 15    09 58 22.9 -07 06 10   0.01156 1.0046   153.5    26.2    17.3
...
2019 03 21    07 21 59.0 -65 11 42   0.03235 1.0012    98.4    79.7    21.1
...
2019 03 29    05 38 40.8 -71 44 47   0.06954 0.9995    89.1    87.0    23.1
...
2019 04 13    04 36 36.0 -73 00 56   0.1368  1.0055    87.3    84.8    24.5

A. U. Tomatic                (C) Copyright 2019 MPC           M.P.E.C. 2019-E94



More information about the Iaude mailing list